Time,TemperatureF,DewpointF,PressureIn,WindDirection,WindDirectionDegrees,WindSpeedMPH,WindSpeedGustMPH,Humidity,HourlyPrecipIn,Conditions,Clouds,dailyrainin,SoftwareType,DateUTC
2013-09-08 00:03:00,69.0,44.0,29.66,South,183,0.0,0.0,40,0.00,,,0.00,weatherlink.com 1.10,2013-09-08 06:03:00,
2013-09-08 00:18:00,67.9,44.0,29.66,South,183,0.0,0.0,43,0.00,,,0.00,weatherlink.com 1.10,2013-09-08 06:18:00,
2013-09-08 00:33:00,67.3,45.0,29.66,South,184,0.0,0.0,44,0.00,,,0.00,weatherlink.com 1.10,2013-09-08 06:33:00,
2013-09-08 00:48:00,67.2,44.0,29.66,South,184,0.0,1.0,44,0.00,,,0.00,weatherlink.com 1.10,2013-09-08 06:48:00,
2013-09-08 01:03:00,67.3,44.0,29.66,South,184,0.0,1.0,43,0.00,,,0.00,weatherlink.com 1.10,2013-09-08 07:03:00,
2013-09-08 01:18:00,67.2,44.0,29.66,South,183,0.0,1.0,44,0.00,,,0.00,weatherlink.com 1.10,2013-09-08 07:18:00,
2013-09-08 01:33:00,66.7,45.0,29.66,South,183,1.0,1.0,45,0.00,,,0.00,weatherlink.com 1.10,2013-09-08 07:33:00,
2013-09-08 01:49:00,66.6,44.0,29.65,South,184,0.0,1.0,45,0.00,,,0.00,weatherlink.com 1.10,2013-09-08 07:49:00,
2013-09-08 02:05:00,66.0,45.0,29.65,South,183,0.0,1.0,47,0.00,,,0.00,weatherlink.com 1.10,2013-09-08 08:05:00,
2013-09-08 02:19:00,65.5,44.0,29.65,South,183,0.0,1.0,46,0.00,,,0.00,weatherlink.com 1.10,2013-09-08 08:19:00,
2013-09-08 02:34:00,65.2,45.0,29.65,South,183,0.0,0.0,48,0.00,,,0.00,weatherlink.com 1.10,2013-09-08 08:34:00,
2013-09-08 02:49:00,64.2,44.0,29.65,South,183,0.0,0.0,49,0.00,,,0.00,weatherlink.com 1.10,2013-09-08 08:49:00,
2013-09-08 03:04:00,63.4,44.0,29.65,South,184,0.0,0.0,50,0.00,,,0.00,weatherlink.com 1.10,2013-09-08 09:04:00,
2013-09-08 03:19:00,63.4,45.0,29.65,South,183,0.0,1.0,51,0.00,,,0.00,weatherlink.com 1.10,2013-09-08 09:19:00,
2013-09-08 03:34:00,63.5,45.0,29.65,South,184,0.0,1.0,51,0.00,,,0.00,weatherlink.com 1.10,2013-09-08 09:34:00,
2013-09-08 03:49:00,63.6,45.0,29.65,South,184,0.0,1.0,51,0.00,,,0.00,weatherlink.com 1.10,2013-09-08 09:49:00,
2013-09-08 04:04:00,63.6,44.0,29.65,South,184,0.0,1.0,50,0.00,,,0.00,weatherlink.com 1.10,2013-09-08 10:04:00,
2013-09-08 04:19:00,63.5,45.0,29.65,South,183,0.0,1.0,51,0.00,,,0.00,weatherlink.com 1.10,2013-09-08 10:19:00,
2013-09-08 04:34:00,63.3,44.0,29.65,South,183,0.0,1.0,50,0.00,,,0.00,weatherlink.com 1.10,2013-09-08 10:34:00,
2013-09-08 04:49:00,63.2,45.0,29.65,South,183,0.0,1.0,51,0.00,,,0.00,weatherlink.com 1.10,2013-09-08 10:49:00,
2013-09-08 05:04:00,63.1,44.0,29.65,South,184,0.0,2.0,50,0.00,,,0.00,weatherlink.com 1.10,2013-09-08 11:04:00,
2013-09-08 05:19:00,62.9,44.0,29.65,South,184,0.0,2.0,50,0.00,,,0.00,weatherlink.com 1.10,2013-09-08 11:19:00,
2013-09-08 05:34:00,62.7,44.0,29.64,South,184,0.0,1.0,50,0.00,,,0.00,weatherlink.com 1.10,2013-09-08 11:34:00,
2013-09-08 05:49:00,62.1,44.0,29.64,South,183,0.0,0.0,51,0.00,,,0.00,weatherlink.com 1.10,2013-09-08 11:49:00,
2013-09-08 06:04:00,61.6,44.0,29.65,South,184,0.0,1.0,53,0.00,,,0.00,weatherlink.com 1.10,2013-09-08 12:04:00,
2013-09-08 06:19:00,61.3,44.0,29.65,South,184,0.0,1.0,54,0.00,,,0.00,weatherlink.com 1.10,2013-09-08 12:19:00,
2013-09-08 06:34:00,61.2,44.0,29.65,South,183,0.0,0.0,54,0.00,,,0.00,weatherlink.com 1.10,2013-09-08 12:34:00,
2013-09-08 06:49:00,60.8,44.0,29.66,South,184,0.0,1.0,55,0.00,,,0.00,weatherlink.com 1.10,2013-09-08 12:49:00,
2013-09-08 07:04:00,60.9,44.0,29.66,South,183,0.0,1.0,54,0.00,,,0.00,weatherlink.com 1.10,2013-09-08 13:04:00,
2013-09-08 07:19:00,61.4,44.0,29.66,South,184,0.0,0.0,54,0.00,,,0.00,weatherlink.com 1.10,2013-09-08 13:19:00,
2013-09-08 07:34:00,64.6,46.0,29.66,South,183,0.0,0.0,51,0.00,,,0.00,weatherlink.com 1.10,2013-09-08 13:34:00,
2013-09-08 07:49:00,66.6,47.0,29.66,South,184,0.0,1.0,50,0.00,,,0.00,weatherlink.com 1.10,2013-09-08 13:49:00,
2013-09-08 08:04:00,68.6,47.0,29.66,South,184,0.0,2.0,47,0.00,,,0.00,weatherlink.com 1.10,2013-09-08 14:04:00,
2013-09-08 08:19:00,70.7,46.0,29.65,South,170,0.0,2.0,42,0.00,,,0.00,weatherlink.com 1.10,2013-09-08 14:19:00,
2013-09-08 08:34:00,72.4,47.0,29.65,South,183,0.0,2.0,40,0.00,,,0.00,weatherlink.com 1.10,2013-09-08 14:34:00,
2013-09-08 08:49:00,74.4,48.0,29.65,South,184,1.0,3.0,39,0.00,,,0.00,weatherlink.com 1.10,2013-09-08 14:49:00,
2013-09-08 09:04:00,74.0,47.0,29.65,South,184,0.0,1.0,39,0.00,,,0.00,weatherlink.com 1.10,2013-09-08 15:04:00,
2013-09-08 09:19:00,74.6,47.0,29.65,South,184,0.0,2.0,38,0.00,,,0.00,weatherlink.com 1.10,2013-09-08 15:19:00,
2013-09-08 09:34:00,74.9,48.0,29.65,South,184,0.0,4.0,38,0.00,,,0.00,weatherlink.com 1.10,2013-09-08 15:34:00,
2013-09-08 09:49:00,76.3,49.0,29.65,South,184,1.0,2.0,38,0.00,,,0.00,weatherlink.com 1.10,2013-09-08 15:49:00,
2013-09-08 10:05:00,76.7,49.0,29.64,South,184,1.0,5.0,38,0.00,,,0.00,weatherlink.com 1.10,2013-09-08 16:05:00,
2013-09-08 10:20:00,78.0,49.0,29.64,North,6,0.0,4.0,36,0.00,,,0.00,weatherlink.com 1.10,2013-09-08 16:20:00,
2013-09-08 10:35:00,79.3,48.0,29.64,NNW,336,2.0,3.0,33,0.00,,,0.00,weatherlink.com 1.10,2013-09-08 16:35:00,
2013-09-08 10:50:00,80.8,49.0,29.63,NNW,342,1.0,4.0,33,0.00,,,0.00,weatherlink.com 1.10,2013-09-08 16:50:00,
2013-09-08 11:05:00,81.4,48.0,29.62,East,79,0.0,5.0,31,0.00,,,0.00,weatherlink.com 1.10,2013-09-08 17:05:00,
2013-09-08 11:20:00,82.1,48.0,29.62,NNW,335,2.0,4.0,30,0.00,,,0.00,weatherlink.com 1.10,2013-09-08 17:20:00,
2013-09-08 11:35:00,83.2,49.0,29.61,North,356,1.0,5.0,30,0.00,,,0.00,weatherlink.com 1.10,2013-09-08 17:35:00,
2013-09-08 11:50:00,83.1,48.0,29.61,ENE,77,1.0,5.0,29,0.00,,,0.00,weatherlink.com 1.10,2013-09-08 17:50:00,
2013-09-08 12:05:00,84.2,49.0,29.60,NNE,29,2.0,5.0,29,0.00,,,0.00,weatherlink.com 1.10,2013-09-08 18:05:00,
2013-09-08 12:20:00,85.0,48.0,29.59,NW,307,0.0,3.0,28,0.00,,,0.00,weatherlink.com 1.10,2013-09-08 18:20:00,
2013-09-08 12:35:00,85.6,49.0,29.59,NE,34,0.0,3.0,28,0.00,,,0.00,weatherlink.com 1.10,2013-09-08 18:35:00,
2013-09-08 12:50:00,86.9,48.0,29.58,North,9,1.0,3.0,26,0.00,,,0.00,weatherlink.com 1.10,2013-09-08 18:50:00,
2013-09-08 13:05:00,87.8,47.0,29.57,WNW,294,1.0,4.0,24,0.00,,,0.00,weatherlink.com 1.10,2013-09-08 19:05:00,
2013-09-08 13:20:00,89.2,48.0,29.57,NNW,337,1.0,3.0,24,0.00,,,0.00,weatherlink.com 1.10,2013-09-08 19:20:00,
2013-09-08 13:35:00,89.7,48.0,29.56,WSW,253,1.0,2.0,24,0.00,,,0.00,weatherlink.com 1.10,2013-09-08 19:35:00,
2013-09-08 13:50:00,90.5,46.0,29.55,NNW,348,5.0,5.0,21,0.00,,,0.00,weatherlink.com 1.10,2013-09-08 19:50:00,
2013-09-08 14:05:00,90.5,47.0,29.54,North,350,1.0,4.0,22,0.00,,,0.00,weatherlink.com 1.10,2013-09-08 20:05:00,
2013-09-08 14:20:00,91.2,47.0,29.53,North,11,1.0,3.0,22,0.00,,,0.00,weatherlink.com 1.10,2013-09-08 20:20:00,
2013-09-08 14:36:00,92.5,48.0,29.53,East,91,1.0,4.0,22,0.00,,,0.00,weatherlink.com 1.10,2013-09-08 20:36:00,
2013-09-08 14:51:00,93.2,49.0,29.52,East,101,1.0,4.0,22,0.00,,,0.00,weatherlink.com 1.10,2013-09-08 20:51:00,
2013-09-08 15:06:00,92.5,43.0,29.51,NNW,335,1.0,3.0,18,0.00,,,0.00,weatherlink.com 1.10,2013-09-08 21:06:00,
2013-09-08 15:21:00,93.6,43.0,29.50,SE,139,0.0,3.0,17,0.00,,,0.00,weatherlink.com 1.10,2013-09-08 21:21:00,
2013-09-08 15:36:00,91.4,44.0,29.49,North,5,0.0,3.0,19,0.00,,,0.00,weatherlink.com 1.10,2013-09-08 21:36:00,
2013-09-08 15:51:00,89.9,44.0,29.49,North,359,0.0,1.0,20,0.00,,,0.00,weatherlink.com 1.10,2013-09-08 21:51:00,
2013-09-08 16:06:00,91.2,46.0,29.49,NE,47,2.0,5.0,21,0.00,,,0.00,weatherlink.com 1.10,2013-09-08 22:06:00,
2013-09-08 16:21:00,91.8,48.0,29.48,NNE,29,2.0,5.0,22,0.00,,,0.00,weatherlink.com 1.10,2013-09-08 22:21:00,
2013-09-08 16:36:00,91.9,47.0,29.48,East,85,2.0,4.0,21,0.00,,,0.00,weatherlink.com 1.10,2013-09-08 22:36:00,
2013-09-08 16:51:00,90.4,49.0,29.47,NNW,342,2.0,8.0,24,0.00,,,0.00,weatherlink.com 1.10,2013-09-08 22:51:00,
2013-09-08 17:06:00,89.5,48.0,29.46,NNW,346,7.0,7.0,24,0.00,,,0.00,weatherlink.com 1.10,2013-09-08 23:06:00,
2013-09-08 17:21:00,88.2,50.0,29.48,NNW,334,2.0,6.0,27,0.00,,,0.00,weatherlink.com 1.10,2013-09-08 23:21:00,
2013-09-08 17:36:00,86.9,48.0,29.50,NNE,32,0.0,2.0,26,0.00,,,0.00,weatherlink.com 1.10,2013-09-08 23:36:00,
2013-09-08 17:51:00,85.3,58.0,29.50,ENE,67,0.0,1.0,40,0.00,,,0.00,weatherlink.com 1.10,2013-09-08 23:51:00,
2013-09-08 18:06:00,82.3,56.0,29.51,ENE,67,0.0,0.0,41,0.00,,,0.00,weatherlink.com 1.10,2013-09-09 00:06:00,
2013-09-08 18:21:00,81.2,54.0,29.51,NE,39,0.0,1.0,39,0.00,,,0.00,weatherlink.com 1.10,2013-09-09 00:21:00,
2013-09-08 18:36:00,81.0,50.0,29.52,West,266,0.0,1.0,34,0.00,,,0.00,weatherlink.com 1.10,2013-09-09 00:36:00,
2013-09-08 18:51:00,80.9,51.0,29.51,NNW,336,0.0,1.0,36,0.00,,,0.00,weatherlink.com 1.10,2013-09-09 00:51:00,
2013-09-08 19:06:00,80.5,51.0,29.50,NE,41,1.0,1.0,36,0.00,,,0.00,weatherlink.com 1.10,2013-09-09 01:06:00,
2013-09-08 19:21:00,80.6,51.0,29.48,NNW,336,0.0,2.0,36,0.00,,,0.00,weatherlink.com 1.10,2013-09-09 01:21:00,
2013-09-08 19:36:00,80.3,51.0,29.48,North,359,0.0,1.0,36,0.00,,,0.00,weatherlink.com 1.10,2013-09-09 01:36:00,
2013-09-08 19:51:00,79.1,51.0,29.48,North,358,0.0,0.0,38,0.00,,,0.00,weatherlink.com 1.10,2013-09-09 01:51:00,
2013-09-08 20:06:00,78.2,51.0,29.48,North,356,0.0,0.0,39,0.00,,,0.00,weatherlink.com 1.10,2013-09-09 02:06:00,
2013-09-08 20:21:00,77.4,50.0,29.49,North,356,0.0,0.0,39,0.00,,,0.00,weatherlink.com 1.10,2013-09-09 02:21:00,
2013-09-08 20:36:00,76.9,50.0,29.50,East,89,0.0,1.0,39,0.00,,,0.00,weatherlink.com 1.10,2013-09-09 02:36:00,
2013-09-08 20:51:00,76.1,51.0,29.50,East,89,0.0,0.0,41,0.00,,,0.00,weatherlink.com 1.10,2013-09-09 02:51:00,
2013-09-08 21:06:00,75.6,51.0,29.51,SE,141,0.0,0.0,43,0.00,,,0.00,weatherlink.com 1.10,2013-09-09 03:06:00,
2013-09-08 21:21:00,75.5,51.0,29.51,SSE,156,0.0,1.0,43,0.00,,,0.00,weatherlink.com 1.10,2013-09-09 03:21:00,
2013-09-08 21:36:00,74.9,51.0,29.52,SSE,155,0.0,0.0,44,0.00,,,0.00,weatherlink.com 1.10,2013-09-09 03:36:00,
2013-09-08 21:51:00,74.2,52.0,29.52,SSE,162,0.0,1.0,46,0.00,,,0.00,weatherlink.com 1.10,2013-09-09 03:51:00,
2013-09-08 22:06:00,73.4,52.0,29.52,ESE,123,0.0,0.0,48,0.00,,,0.00,weatherlink.com 1.10,2013-09-09 04:06:00,
2013-09-08 22:21:00,72.9,53.0,29.52,ESE,122,0.0,0.0,49,0.00,,,0.00,weatherlink.com 1.10,2013-09-09 04:21:00,
2013-09-08 22:36:00,72.0,53.0,29.52,ESE,122,0.0,0.0,52,0.00,,,0.00,weatherlink.com 1.10,2013-09-09 04:36:00,
2013-09-08 22:51:00,71.6,53.0,29.53,ESE,122,0.0,0.0,53,0.00,,,0.00,weatherlink.com 1.10,2013-09-09 04:51:00,
2013-09-08 23:06:00,71.0,53.0,29.53,ESE,122,0.0,0.0,54,0.00,,,0.00,weatherlink.com 1.10,2013-09-09 05:06:00,
2013-09-08 23:21:00,70.1,54.0,29.53,ESE,122,0.0,0.0,56,0.00,,,0.00,weatherlink.com 1.10,2013-09-09 05:21:00,
2013-09-08 23:36:00,69.2,53.0,29.53,ESE,122,0.0,0.0,57,0.00,,,0.00,weatherlink.com 1.10,2013-09-09 05:36:00,
2013-09-08 23:51:00,68.3,54.0,29.54,ESE,122,0.0,0.0,60,0.00,,,0.00,weatherlink.com 1.10,2013-09-09 05:51:00,